This is the latest recevied weather packets stored in our database for station/object IZ3LCH-13. If no packets are shown the sender has not sent any weather packets the latest 1 day(s).
| Time | Temp. | Humidity | Pressure | Rain* | Wind** | Luminosity | Snow |
|---|---|---|---|---|---|---|---|
| 1778001603 | 15.56° C | 81% | 1012.5 hPa | 0 mm | 2.24 m/s, 6° | - | - |
| 1778001303 | 15.56° C | 81% | 1012.4 hPa | 0 mm | 2.24 m/s, 15° | - | - |
| 1778001003 | 15.56° C | 81% | 1012.3 hPa | 0 mm | 2.68 m/s, 16° | - | - |
| 1778000703 | 15.56° C | 80% | 1012.2 hPa | 0 mm | 2.68 m/s, 12° | - | - |
| 1778000403 | 15.56° C | 80% | 1012.2 hPa | 0 mm | 2.68 m/s, 6° | - | - |
| 1778000103 | 15.56° C | 80% | 1012.4 hPa | 0 mm | 2.68 m/s, 9° | - | - |
| 1777999803 | 16.11° C | 80% | 1012.2 hPa | 0 mm | 3.13 m/s, 11° | - | - |
| 1777999503 | 16.11° C | 79% | 1012.2 hPa | 0 mm | 3.13 m/s, 14° | - | - |
| 1777999203 | 16.11° C | 79% | 1012.5 hPa | 0 mm | 3.13 m/s, 16° | - | - |
| 1777998903 | 16.11° C | 78% | 1012.2 hPa | 0 mm | 3.13 m/s, 15° | - | - |
| 1777998603 | 16.67° C | 78% | 1012.2 hPa | 0 mm | 3.13 m/s, 14° | - | - |
| 1777998303 | 16.67° C | 78% | 1012.2 hPa | 0 mm | 3.13 m/s, 11° | - | - |
| 1777998003 | 16.67° C | 77% | 1012.3 hPa | 0 mm | 3.13 m/s, 8° | - | - |
| 1777997703 | 17.22° C | 78% | 1012.2 hPa | 0 mm | 3.13 m/s, 5° | - | - |
| 1777997403 | 16.67° C | 77% | 1012.2 hPa | 0 mm | 3.58 m/s, 2° | - | - |
| 1777997103 | 17.22° C | 77% | 1012.3 hPa | 0 mm | 3.13 m/s, 2° | - | - |
| 1777996803 | 17.22° C | 77% | 1012.3 hPa | 0 mm | 3.13 m/s, 5° | - | - |
| 1777996503 | 16.67° C | 77% | 1012.3 hPa | 0 mm | 3.13 m/s, 3° | - | - |
| 1777996203 | 16.67° C | 77% | 1012.3 hPa | 0 mm | 2.68 m/s, 2° | - | - |
| 1777995903 | 16.67° C | 76% | 1012.4 hPa | 0 mm | 2.68 m/s, 360° | - | - |
| 1777995603 | 16.67° C | 76% | 1012.4 hPa | 0 mm | 2.68 m/s, 1° | - | - |
| 1777995303 | 17.22° C | 76% | 1012.4 hPa | 0 mm | 2.68 m/s, 6° | - | - |
| 1777995003 | 17.22° C | 76% | 1012.5 hPa | 0 mm | 2.68 m/s, 5° | - | - |
| 1777994703 | 17.22° C | 75% | 1012.4 hPa | 0 mm | 2.68 m/s, 4° | - | - |
| 1777994403 | 17.22° C | 75% | 1012.4 hPa | 0 mm | 2.68 m/s, 3° | - | - |
* Rain latest hour (hover to see other rain measurements)
** Current wind speed in m/s (hover to see current wind gust speed)